星链-5656 (STARLINK-5656 )

导读 | 豆包AI

STARLINK-5656是美国太空探索技术公司(SpaceX)星链星座中的一颗卫星,于2023年2月2日发射入轨。星链项目旨在构建全球卫星互联网星座,为全球偏远地区、海洋空域等提供低延迟、高速率的宽带互联网接入服务,这颗卫星入轨后进一步扩充了星链星座的在轨运行规模。

基本信息
目录编号:
55451
目录名称:
STARLINK-5656
国际标识:
2023-015C
轨道中心:
EARTH
卫星名称:
星链-5656
卫星全名:
星链-5656 (STARLINK-5656 )
卫星状态:
在轨 (已飞行1183 天)
发射日期:
2023-02-02 UTC
国别 :
美国 (US)
星等 :
--
轨道信息
数据来源 国际轨道数据
星历时间: 2026-04-30T10:54:45+0800
9小时前
查看轨道信息
半长轴: 6861.196km
偏心率: 0.0001388
轨道倾角: 43.004°
近地点辐角 267.828°
升交点赤经 38.624°
平近点角 92.241°
近地点: 482.106km
远地点: 484.012km
周期: 94.267分钟
每日圈数: 15.275767
详细信息
固有亮度:
5
最大亮度:
2.5
卫星平台:
Starlink v1.5
覆盖范围:
全球
运营商:
太空探索技术公司
运营商所在国:
美国
制造商(研发单位):
太空探索技术公司
制造商所在国:
美国
使用方式:
暂无
卫星简介
星链(Starlink)计划是由太空探索技术公司(SpaceX)提出的一个巨型低轨卫星互联网星座项目,计划在2019年至2024年间在太空搭建由约1.2万颗卫星组成的“星链”网络,其中1584颗将部署在地球上空550千米处的近地轨道,并从2020年开始工作。该卫星仍在工作。
2D轨道图
3D轨道图
轨道高度分析图
轨道倾角分析图
轨道综合分析图
查看轨道综合分析图